Time,TemperatureF,DewpointF,PressureIn,WindDirection,WindDirectionDegrees,WindSpeedMPH,WindSpeedGustMPH,Humidity,HourlyPrecipIn,Conditions,Clouds,dailyrainin,SoftwareType,DateUTC
2013-03-09 00:09:00,40.6,35.0,30.17,West,279,0.0,-999.0,81,-99.99,,,0.00,weatherlink.com 1.10,2013-03-09 08:09:00,
2013-03-09 00:24:00,40.3,35.0,30.18,West,274,0.0,-999.0,80,-99.99,,,0.00,weatherlink.com 1.10,2013-03-09 08:24:00,
2013-03-09 00:40:00,40.6,35.0,30.19,SSE,165,0.0,-999.0,79,-99.99,,,0.00,weatherlink.com 1.10,2013-03-09 08:40:00,
2013-03-09 00:55:00,40.8,35.0,30.19,SW,234,0.0,-999.0,79,-99.99,,,0.00,weatherlink.com 1.10,2013-03-09 08:55:00,
2013-03-09 01:10:00,41.0,35.0,30.19,WSW,238,0.0,-999.0,80,-99.99,,,0.00,weatherlink.com 1.10,2013-03-09 09:10:00,
2013-03-09 01:25:00,40.9,35.0,30.19,WNW,291,0.0,-999.0,80,-99.99,,,0.00,weatherlink.com 1.10,2013-03-09 09:25:00,
2013-03-09 01:40:00,40.7,35.0,30.18,WSW,257,0.0,-999.0,81,-99.99,,,0.00,weatherlink.com 1.10,2013-03-09 09:40:00,
2013-03-09 01:55:00,40.1,35.0,30.18,North,355,0.0,-999.0,82,-99.99,,,0.00,weatherlink.com 1.10,2013-03-09 09:55:00,
2013-03-09 02:10:00,39.5,35.0,30.17,North,11,0.0,-999.0,83,-99.99,,,0.00,weatherlink.com 1.10,2013-03-09 10:10:00,
2013-03-09 02:25:00,39.1,34.0,30.17,NE,38,0.0,-999.0,83,-99.99,,,0.00,weatherlink.com 1.10,2013-03-09 10:25:00,
2013-03-09 02:40:00,39.2,34.0,30.18,ESE,102,0.0,-999.0,82,-99.99,,,0.00,weatherlink.com 1.10,2013-03-09 10:40:00,
2013-03-09 02:55:00,39.1,34.0,30.18,NE,41,0.0,-999.0,82,-99.99,,,0.00,weatherlink.com 1.10,2013-03-09 10:55:00,
2013-03-09 03:10:00,38.9,34.0,30.18,West,280,0.0,-999.0,82,-99.99,,,0.00,weatherlink.com 1.10,2013-03-09 11:10:00,
2013-03-09 03:25:00,38.8,33.0,30.20,WNW,283,0.0,-999.0,81,-99.99,,,0.00,weatherlink.com 1.10,2013-03-09 11:25:00,
2013-03-09 03:40:00,38.8,33.0,30.21,NW,325,0.0,-999.0,80,-99.99,,,0.00,weatherlink.com 1.10,2013-03-09 11:40:00,
2013-03-09 03:55:00,39.2,34.0,30.21,West,281,0.0,-999.0,81,-99.99,,,0.00,weatherlink.com 1.10,2013-03-09 11:55:00,
2013-03-09 04:10:00,39.6,34.0,30.22,West,272,0.0,-999.0,81,-99.99,,,0.00,weatherlink.com 1.10,2013-03-09 12:10:00,
2013-03-09 04:25:00,40.0,34.0,30.23,WSW,251,0.0,-999.0,80,-99.99,,,0.00,weatherlink.com 1.10,2013-03-09 12:25:00,
2013-03-09 04:40:00,40.6,35.0,30.24,West,268,0.0,-999.0,81,-99.99,,,0.00,weatherlink.com 1.10,2013-03-09 12:40:00,
2013-03-09 04:55:00,40.4,35.0,30.24,West,259,0.0,-999.0,82,-99.99,,,0.00,weatherlink.com 1.10,2013-03-09 12:55:00,
2013-03-09 05:10:00,40.2,35.0,30.24,WSW,256,1.0,-999.0,82,-99.99,,,0.00,weatherlink.com 1.10,2013-03-09 13:10:00,
2013-03-09 05:25:00,40.4,35.0,30.24,West,263,0.0,-999.0,82,-99.99,,,0.00,weatherlink.com 1.10,2013-03-09 13:25:00,
2013-03-09 05:40:00,40.5,35.0,30.24,West,271,0.0,-999.0,82,-99.99,,,0.00,weatherlink.com 1.10,2013-03-09 13:40:00,
2013-03-09 05:55:00,40.4,35.0,30.24,West,279,0.0,-999.0,82,-99.99,,,0.00,weatherlink.com 1.10,2013-03-09 13:55:00,
2013-03-09 06:10:00,40.1,35.0,30.25,West,269,0.0,-999.0,82,-99.99,,,0.00,weatherlink.com 1.10,2013-03-09 14:10:00,
2013-03-09 06:25:00,40.0,35.0,30.25,South,169,0.0,-999.0,82,-99.99,,,0.00,weatherlink.com 1.10,2013-03-09 14:25:00,
2013-03-09 06:40:00,40.1,35.0,30.25,WSW,246,0.0,-999.0,82,-99.99,,,0.00,weatherlink.com 1.10,2013-03-09 14:40:00,
2013-03-09 06:55:00,40.4,35.0,30.26,SSE,156,0.0,-999.0,82,-99.99,,,0.00,weatherlink.com 1.10,2013-03-09 14:55:00,
2013-03-09 07:10:00,40.4,35.0,30.26,ESE,118,0.0,-999.0,82,-99.99,,,0.00,weatherlink.com 1.10,2013-03-09 15:10:00,
2013-03-09 07:25:00,40.5,35.0,30.26,North,5,0.0,-999.0,82,-99.99,,,0.00,weatherlink.com 1.10,2013-03-09 15:25:00,
2013-03-09 07:40:00,42.2,37.0,30.26,NE,51,0.0,-999.0,81,-99.99,,,0.00,weatherlink.com 1.10,2013-03-09 15:40:00,
2013-03-09 07:55:00,42.1,37.0,30.26,WSW,253,2.0,-999.0,82,-99.99,,,0.00,weatherlink.com 1.10,2013-03-09 15:55:00,
2013-03-09 08:10:00,42.7,38.0,30.26,West,271,0.0,-999.0,83,-99.99,,,0.00,weatherlink.com 1.10,2013-03-09 16:10:00,
2013-03-09 08:25:00,43.2,38.0,30.26,ENE,62,0.0,-999.0,82,-99.99,,,0.00,weatherlink.com 1.10,2013-03-09 16:25:00,
2013-03-09 08:40:00,44.2,39.0,30.28,West,268,0.0,-999.0,82,-99.99,,,0.00,weatherlink.com 1.10,2013-03-09 16:40:00,
2013-03-09 08:55:00,44.4,39.0,30.28,West,267,1.0,-999.0,81,-99.99,,,0.00,weatherlink.com 1.10,2013-03-09 16:55:00,
2013-03-09 09:10:00,45.0,41.0,30.28,West,269,3.0,-999.0,84,-99.99,,,0.00,weatherlink.com 1.10,2013-03-09 17:10:00,
2013-03-09 09:25:00,44.7,40.0,30.28,WSW,248,0.0,-999.0,84,-99.99,,,0.00,weatherlink.com 1.10,2013-03-09 17:25:00,
2013-03-09 09:40:00,45.7,42.0,30.28,West,269,0.0,-999.0,86,-99.99,,,0.00,weatherlink.com 1.10,2013-03-09 17:40:00,
2013-03-09 09:55:00,46.6,43.0,30.29,West,264,0.0,-999.0,86,-99.99,,,0.00,weatherlink.com 1.10,2013-03-09 17:55:00,
2013-03-09 10:10:00,47.0,42.0,30.29,West,262,0.0,-999.0,84,-99.99,,,0.00,weatherlink.com 1.10,2013-03-09 18:10:00,
2013-03-09 10:25:00,48.3,44.0,30.30,South,173,0.0,-999.0,84,-99.99,,,0.00,weatherlink.com 1.10,2013-03-09 18:25:00,
2013-03-09 10:40:00,49.6,44.0,30.30,ESE,103,0.0,-999.0,82,-99.99,,,0.00,weatherlink.com 1.10,2013-03-09 18:40:00,
2013-03-09 10:55:00,54.6,46.0,30.30,WSW,240,0.0,-999.0,72,-99.99,,,0.00,weatherlink.com 1.10,2013-03-09 18:55:00,
2013-03-09 11:10:00,52.5,46.0,30.31,WSW,239,3.0,-999.0,78,-99.99,,,0.00,weatherlink.com 1.10,2013-03-09 19:10:00,
2013-03-09 11:25:00,54.7,46.0,30.30,WSW,250,0.0,-999.0,72,-99.99,,,0.00,weatherlink.com 1.10,2013-03-09 19:25:00,
2013-03-09 11:40:00,56.9,42.0,30.30,SW,226,1.0,-999.0,57,-99.99,,,0.00,weatherlink.com 1.10,2013-03-09 19:40:00,
2013-03-09 11:55:00,59.1,42.0,30.31,West,267,0.0,-999.0,53,-99.99,,,0.00,weatherlink.com 1.10,2013-03-09 19:55:00,
2013-03-09 12:10:00,59.0,40.0,30.30,South,184,0.0,-999.0,49,-99.99,,,0.00,weatherlink.com 1.10,2013-03-09 20:10:00,
2013-03-09 12:25:00,55.3,44.0,30.30,WSW,257,0.0,-999.0,65,-99.99,,,0.00,weatherlink.com 1.10,2013-03-09 20:25:00,
2013-03-09 12:40:00,58.5,42.0,30.29,WSW,238,0.0,-999.0,54,-99.99,,,0.00,weatherlink.com 1.10,2013-03-09 20:40:00,
2013-03-09 12:55:00,59.0,44.0,30.29,NE,40,4.0,-999.0,57,-99.99,,,0.00,weatherlink.com 1.10,2013-03-09 20:55:00,
2013-03-09 13:10:00,60.1,42.0,30.30,SSW,207,1.0,-999.0,52,-99.99,,,0.00,weatherlink.com 1.10,2013-03-09 21:10:00,
2013-03-09 13:25:00,57.5,47.0,30.30,ENE,77,0.0,-999.0,67,-99.99,,,0.00,weatherlink.com 1.10,2013-03-09 21:25:00,
2013-03-09 13:40:00,57.0,44.0,30.30,East,98,0.0,-999.0,63,-99.99,,,0.00,weatherlink.com 1.10,2013-03-09 21:40:00,
2013-03-09 13:55:00,54.1,45.0,30.30,SE,136,0.0,-999.0,70,-99.99,,,0.00,weatherlink.com 1.10,2013-03-09 21:55:00,
2013-03-09 14:10:00,58.2,47.0,30.30,West,267,1.0,-999.0,66,-99.99,,,0.00,weatherlink.com 1.10,2013-03-09 22:10:00,
2013-03-09 14:25:00,59.8,43.0,30.29,West,281,0.0,-999.0,54,-99.99,,,0.00,weatherlink.com 1.10,2013-03-09 22:25:00,
2013-03-09 14:40:00,57.5,44.0,30.30,West,275,1.0,-999.0,62,-99.99,,,0.00,weatherlink.com 1.10,2013-03-09 22:40:00,
2013-03-09 14:55:00,57.3,44.0,30.30,ENE,59,0.0,-999.0,61,-99.99,,,0.00,weatherlink.com 1.10,2013-03-09 22:55:00,
2013-03-09 15:10:00,55.3,43.0,30.29,SSE,167,0.0,-999.0,64,-99.99,,,0.00,weatherlink.com 1.10,2013-03-09 23:10:00,
2013-03-09 15:25:00,56.5,45.0,30.30,WSW,256,0.0,-999.0,65,-99.99,,,0.00,weatherlink.com 1.10,2013-03-09 23:25:00,
2013-03-09 15:40:00,58.8,40.0,30.29,NE,38,0.0,-999.0,50,-99.99,,,0.00,weatherlink.com 1.10,2013-03-09 23:40:00,
2013-03-09 15:55:00,57.9,41.0,30.29,NE,45,14.0,-999.0,53,-99.99,,,0.00,weatherlink.com 1.10,2013-03-09 23:55:00,
2013-03-09 16:10:00,57.3,38.0,30.30,SW,223,4.0,-999.0,49,-99.99,,,0.00,weatherlink.com 1.10,2013-03-10 00:10:00,
2013-03-09 16:25:00,56.1,38.0,30.30,ESE,115,3.0,-999.0,52,-99.99,,,0.00,weatherlink.com 1.10,2013-03-10 00:25:00,
2013-03-09 16:40:00,56.7,41.0,30.30,NNE,15,1.0,-999.0,57,-99.99,,,0.00,weatherlink.com 1.10,2013-03-10 00:40:00,
2013-03-09 16:55:00,56.5,38.0,30.30,North,355,1.0,-999.0,51,-99.99,,,0.00,weatherlink.com 1.10,2013-03-10 00:55:00,
2013-03-09 17:10:00,55.8,38.0,30.30,NNW,331,0.0,-999.0,52,-99.99,,,0.00,weatherlink.com 1.10,2013-03-10 01:10:00,
2013-03-09 17:25:00,55.3,38.0,30.30,South,188,0.0,-999.0,53,-99.99,,,0.00,weatherlink.com 1.10,2013-03-10 01:25:00,
2013-03-09 17:40:00,54.1,39.0,30.30,NE,40,0.0,-999.0,56,-99.99,,,0.00,weatherlink.com 1.10,2013-03-10 01:40:00,
2013-03-09 17:55:00,54.0,37.0,30.31,NNW,345,0.0,-999.0,52,-99.99,,,0.00,weatherlink.com 1.10,2013-03-10 01:55:00,
2013-03-09 18:10:00,53.5,36.0,30.31,North,349,0.0,-999.0,51,-99.99,,,0.00,weatherlink.com 1.10,2013-03-10 02:10:00,
2013-03-09 18:25:00,53.0,36.0,30.32,WNW,298,0.0,-999.0,52,-99.99,,,0.00,weatherlink.com 1.10,2013-03-10 02:25:00,
2013-03-09 18:40:00,52.8,35.0,30.32,NNW,344,0.0,-999.0,52,-99.99,,,0.00,weatherlink.com 1.10,2013-03-10 02:40:00,
2013-03-09 18:55:00,52.2,36.0,30.33,SE,137,4.0,-999.0,55,-99.99,,,0.00,weatherlink.com 1.10,2013-03-10 02:55:00,
2013-03-09 19:10:00,52.4,35.0,30.34,NE,42,0.0,-999.0,52,-99.99,,,0.00,weatherlink.com 1.10,2013-03-10 03:10:00,
2013-03-09 19:25:00,51.7,34.0,30.34,NE,45,0.0,-999.0,52,-99.99,,,0.00,weatherlink.com 1.10,2013-03-10 03:25:00,
2013-03-09 19:40:00,52.3,34.0,30.34,NNW,344,5.0,-999.0,50,-99.99,,,0.00,weatherlink.com 1.10,2013-03-10 03:40:00,
2013-03-09 19:55:00,52.8,33.0,30.34,ENE,75,3.0,-999.0,48,-99.99,,,0.00,weatherlink.com 1.10,2013-03-10 03:55:00,
2013-03-09 20:10:00,52.9,31.0,30.34,ENE,58,1.0,-999.0,43,-99.99,,,0.00,weatherlink.com 1.10,2013-03-10 04:10:00,
2013-03-09 20:25:00,53.8,30.0,30.34,East,84,0.0,-999.0,40,-99.99,,,0.00,weatherlink.com 1.10,2013-03-10 04:25:00,
2013-03-09 20:40:00,53.3,33.0,30.35,ENE,67,0.0,-999.0,47,-99.99,,,0.00,weatherlink.com 1.10,2013-03-10 04:40:00,
2013-03-09 20:55:00,52.3,33.0,30.35,NE,38,0.0,-999.0,48,-99.99,,,0.00,weatherlink.com 1.10,2013-03-10 04:55:00,
2013-03-09 21:10:00,51.5,33.0,30.36,ENE,69,2.0,-999.0,49,-99.99,,,0.00,weatherlink.com 1.10,2013-03-10 05:10:00,
2013-03-09 21:25:00,50.4,33.0,30.36,ENE,59,0.0,-999.0,51,-99.99,,,0.00,weatherlink.com 1.10,2013-03-10 05:25:00,
2013-03-09 21:40:00,51.4,30.0,30.36,NNE,13,0.0,-999.0,44,-99.99,,,0.00,weatherlink.com 1.10,2013-03-10 05:40:00,
2013-03-09 21:55:00,52.6,27.0,30.35,NNE,23,0.0,-999.0,38,-99.99,,,0.00,weatherlink.com 1.10,2013-03-10 05:55:00,
2013-03-09 22:10:00,52.8,29.0,30.35,ESE,110,0.0,-999.0,41,-99.99,,,0.00,weatherlink.com 1.10,2013-03-10 06:10:00,
2013-03-09 22:25:00,52.2,32.0,30.36,ESE,123,0.0,-999.0,46,-99.99,,,0.00,weatherlink.com 1.10,2013-03-10 06:25:00,
2013-03-09 22:40:00,51.4,31.0,30.36,NE,40,1.0,-999.0,46,-99.99,,,0.00,weatherlink.com 1.10,2013-03-10 06:40:00,
2013-03-09 22:55:00,51.6,31.0,30.36,NNE,32,0.0,-999.0,45,-99.99,,,0.00,weatherlink.com 1.10,2013-03-10 06:55:00,
2013-03-09 23:10:00,52.0,31.0,30.36,ENE,64,0.0,-999.0,45,-99.99,,,0.00,weatherlink.com 1.10,2013-03-10 07:10:00,
2013-03-09 23:25:00,51.9,30.0,30.35,ENE,59,0.0,-999.0,44,-99.99,,,0.00,weatherlink.com 1.10,2013-03-10 07:25:00,
2013-03-09 23:40:00,51.9,30.0,30.36,ENE,57,0.0,-999.0,43,-99.99,,,0.00,weatherlink.com 1.10,2013-03-10 07:40:00,
2013-03-09 23:55:00,51.9,29.0,30.36,ENE,57,0.0,-999.0,41,-99.99,,,0.00,weatherlink.com 1.10,2013-03-10 07:55:00,